Tracking 19219 objects as of 22-Jul-2018
HD Live streaming from Space Station
objects crossing your sky now

ARIANE 42L R/B

Track ARIANE 42L R/B now!
10-day predictions


NORAD ID: 25586
Int'l Code: 1998-075B
Perigee: 214.6 km
Apogee: 17,775.0 km
Inclination: 7.5 °
Period: 315.9 minutes
Semi major axis: 15365 km
RCS: 21.3079 m2 (large)
Launch date: December 22, 1998
Source: France (FR)
Launch site: FRENCH GUIANA (FRGUI)

Note: This is a ROCKET BODY
aabbcc
Your satellite tracking list
Your tracking list is empty




NASA's NSSDC Master Catalog

Two Line Element Set (TLE):
1 25586U 98075B   18202.46019730  .00025673  00000-0  86624-3 0  9990
2 25586   7.5222 299.9651 5714110 357.7684   0.4900  4.55793988247932
Source of the keplerian elements: AFSPC